This is the latest recevied weather packets stored in our database for station/object VE7PRT-1. If no packets are shown the sender has not sent any weather packets the latest 10 day(s).
| Time | Temp. | Humidity | Pressure | Rain* | Wind** | Luminosity | Snow |
|---|---|---|---|---|---|---|---|
| 1788468326 | 17.22° C | 89% | 1009.9 hPa | 0 mm | - | - | - |
| 1788467461 | 17.22° C | 89% | 1009.9 hPa | 0 mm | - | - | - |
| 1788466686 | 17.22° C | 90% | 1009.7 hPa | 0 mm | - | - | - |
| 1788465941 | 16.67° C | 93% | 1009.8 hPa | 0 mm | - | - | - |
| 1788465070 | 16.11° C | 96% | 1009.8 hPa | 0 mm | - | - | - |
| 1788464286 | 16.11° C | 96% | 1009.9 hPa | 0 mm | - | - | - |
| 1788463501 | 16.11° C | 96% | 1009.7 hPa | 0 mm | - | - | - |
| 1788462706 | 16.11° C | 97% | 1009.6 hPa | 0 mm | - | - | - |
| 1788461961 | 15.56° C | 97% | 1009.5 hPa | 0 mm | - | - | - |
| 1788461191 | 16.11° C | 99% | 1009.4 hPa | 0 mm | - | - | - |
| 1788460418 | 16.11° C | 99% | 1009.4 hPa | 0 mm | - | - | - |
| 1788459570 | 15.56° C | 98% | 1009.2 hPa | 0 mm | - | - | - |
| 1788458836 | 15.56° C | 98% | 1009.1 hPa | 0 mm | - | - | - |
| 1788458789 | 15° C | 98% | 1008.8 hPa | 0 mm | - | - | - |
| 1788458106 | 15° C | 98% | 1008.8 hPa | 0 mm | - | - | - |
| 1788457221 | 15° C | 98% | 1008.6 hPa | 0 mm | - | - | - |
| 1788456451 | 15° C | 98% | 1008.5 hPa | 0 mm | - | - | - |
| 1788455658 | 14.44° C | 99% | 1008.2 hPa | 0 mm | - | - | - |
| 1788454866 | 14.44° C | 98% | 1008.1 hPa | 0 mm | - | - | - |
| 1788453976 | 14.44° C | 99% | 1008 hPa | 0 mm | - | - | - |
| 1788453161 | 14.44° C | 99% | 1007.9 hPa | 0 mm | - | - | - |
| 1788452416 | 14.44° C | 99% | 1007.8 hPa | 0 mm | - | - | - |
| 1788451596 | 14.44° C | 99% | 1007.7 hPa | 0 mm | - | - | - |
| 1788450786 | 14.44° C | 99% | 1007.6 hPa | 0 mm | - | - | - |
| 1788449986 | 13.89° C | 99% | 1007.4 hPa | 0 mm | - | - | - |
* Rain latest hour (hover to see other rain measurements)
** Current wind speed in m/s (hover to see current wind gust speed)